This demonstration page uses our WeatherBlox Daily Observations layout. Learn more.

Left ArrowRight Arrow

Hourly Observations for May 19, 2021

Temp ( °F °C ) Dew Point ( °F °C ) Humidity (%) Winds ( mph kmh ) Pressure ( in mb ) Visibility ( mi km ) Precip ( " mm )
12:53 am 00:53 Clear 49 9.4 22 -5.6 35 35 WSW 6 9 29.85 1011 10 16 0.00 0.00
1:53 am 01:53 Clear 43 6.1 24 -4.4 47 47 W 5 7 29.86 1011 10 16 0.00 0.00
2:53 am 02:53 Clear 37 2.8 25 -3.9 62 62 SW 6 9 29.89 1012 10 16 0.00 0.00
3:53 am 03:53 Clear 39 3.9 25 -3.9 57 57 SSW 9 15 29.91 1013 10 16 0.00 0.00
4:53 am 04:53 Clear 39 3.9 25 -3.9 57 57 SW 7 11 29.93 1014 10 16 0.00 0.00
5:53 am 05:53 Sunny 37 2.8 26 -3.3 65 65 S 5 7 29.95 1014 10 16 0.00 0.00
6:53 am 06:53 Sunny 39 3.9 28 -2.2 65 65 W 5 7 29.96 1014 10 16 0.00 0.00
7:53 am 07:53 Sunny 50 10 26 -3.3 39 39 SW 12 19 29.96 1015 10 16 0.00 0.00
8:53 am 08:53 Sunny 53 11.7 25 -3.9 34 34 W 7 11 29.97 1015 10 16 0.00 0.00
9:53 am 09:53 Sunny 57 13.9 22 -5.6 26 26 WNW 9 15 29.96 1015 10 16 0.00 0.00
10:53 am 10:53 Sunny 58 14.4 21 -6.1 24 24 NW 15 24 29.96 1015 10 16 0.00 0.00
11:53 am 11:53 Cloudy 59 15 20 -6.7 22 22 NW 12 19 29.96 1014 10 16 0.00 0.00
12:53 pm 12:53 Cloudy 59 15 20 -6.7 22 22 VRB 7 11 29.96 1014 10 16 0.00 0.00
1:53 pm 13:53 Cloudy 60 15.6 20 -6.7 21 21 SSE 7 11 29.96 1015 10 16 0.00 0.00
2:53 pm 14:53 Cloudy 57 13.9 22 -5.6 26 26 Calm 29.97 1015 10 16 0.00 0.00
3:53 pm 15:53 Mostly Cloudy 59 15 26 -3.3 28 28 NNE 13 20 29.95 1014 10 16 0.00 0.00
4:53 pm 16:53 Cloudy 57 13.9 27 -2.8 32 32 N 7 11 29.95 1014 10 16 0.00 0.00
5:53 pm 17:53 Mostly Cloudy 57 13.9 27 -2.8 32 32 NNW 12 19 29.95 1014 10 16 0.00 0.00
6:53 pm 18:53 Cloudy 52 11.1 30 -1.1 43 43 N 22 35 29.96 1014 10 16 0.00 0.00
7:53 pm 19:53 Cloudy 51 10.6 32 0 48 48 N 17 28 29.94 1014 10 16 0.00 0.00
8:53 pm 20:53 Cloudy 50 10 32 0 50 50 N 22 35 29.95 1014 10 16 0.00 0.00
9:53 pm 21:53 Cloudy 49 9.4 33 0.6 55 55 NNE 23 37 29.96 1015 10 16 0.00 0.00
10:53 pm 22:53 Cloudy 48 8.9 34 1.1 58 58 NE 21 33 29.97 1015 10 16 0.00 0.00
11:53 pm 23:53 Cloudy 47 8.3 34 1.1 61 61 ENE 14 22 29.99 1016 10 16 0.00 0.00

Powered by AerisWeather